Regional Weather Roundup
Issued by NWS

Home | Current Version | Previous Version | Graphics & Text | Print | Product List | Glossary On
Versions: 1 2 3 4 5 6 7 8 9 10 11 12 13 14 15 16 17 18 19 20 21 22 23 24 25 26 27 28 29 30 31 32 33 34 35 36 37 38 39 40 41 42 43 44 45 46 47 48 49 50
000
ASUS43 KFSD 181702
RWRSD

WEATHER ROUNDUP FOR SOUTH DAKOTA
NATIONAL WEATHER SERVICE SIOUX FALLS SD
1100 AM CST MON DEC 18 2017

NOTE: "FAIR" INDICATES FEW OR NO CLOUDS BELOW 12,000 FEET WITH NO
SIGNIFICANT WEATHER AND/OR OBSTRUCTIONS TO VISIBILITY.


SDZ001>005-009-010-012>017-181800-
NORTHWEST AND NORTH CENTRAL SOUTH DAKOTA

CITY           SKY/WX    TMP DP  RH WIND       PRES   REMARKS
BUFFALO          N/A     43  24  47 W17       29.62R
FAITH            N/A     37  24  59 SW14      29.69R
MOBRIDGE       CLOUDY    39  29  67 CALM      29.66S
$$

SDZ012>016-024>037-041>051-057-063-072>074-181800-
SOUTHWEST AND SOUTH CENTRAL SOUTH DAKOTA

CITY           SKY/WX    TMP DP  RH WIND       PRES   REMARKS
RAPID CTY ARPT CLOUDY    38  23  55 CALM      29.74R
PIERRE         CLOUDY    37  24  59 W18       29.73S
CUSTER         CLOUDY    31  19  61 W10       29.80R WCI  22
ELLSWORTH AFB  CLOUDY    44  24  46 SW8       29.72
PHILIP         CLOUDY    44  25  47 W17G25    29.75S
PINE RIDGE     CLOUDY    43  25  49 SW14      29.83R
SPEARFISH      FAIR      48  23  37 W10G17    29.71S
WINNER         FAIR      46  28  49 SW10      29.79S
$$

SDZ004>011-016>023-039-040-181800-
NORTHEAST SOUTH DAKOTA

CITY           SKY/WX    TMP DP  RH WIND       PRES   REMARKS
ABERDEEN       MOSUNNY   34  28  79 SW13      29.70S WCI  25
WATERTOWN      CLOUDY    35  28  75 SW15      29.70S WCI  25
BROOKINGS      SUNNY     36  27  69 W15       29.74F
SISSETON         N/A     37  27  67 SW17      29.65F
$$

SDZ017-020-022-023-036>040-048>070-181800-
SOUTHEAST SOUTH DAKOTA

CITY           SKY/WX    TMP DP  RH WIND       PRES   REMARKS
SIOUX FALLS    MOSUNNY   38  28  67 W9        29.80F
HURON          SUNNY     38  28  67 SW12      29.75F
CHAMBERLAIN    SUNNY     42  28  56 SW8       29.78F
MITCHELL       SUNNY     42  27  55 SW12      29.80S
YANKTON        SUNNY     41  26  55 SW10      29.83F
$$

ABBREVIATIONS USED IN REMARKS
   TC - TEMPERATURE IN CELSIUS
  WCI - WIND CHILL INDEX
   HX - HEAT INDEX
  VSB - VISIBILITY





USA.gov is the U.S. government's official web portal to all federal, state and local government web resources and services.